Regional Weather Roundup
Issued by NWS

Home | Current Version | Previous Version | Text Only | Print | Product List | Glossary On
Versions: 1 2 3 4 5 6 7 8 9 10 11 12 13 14 15 16 17 18 19 20 21 22 23 24 25 26 27 28 29 30 31 32 33 34 35 36 37 38 39 40 41 42 43 44 45 46 47 48 49 50
189
ASUS44 KJAN 080103
RWRMS

MISSISSIPPI HOURLY WEATHER ROUNDUP
NATIONAL WEATHER SERVICE JACKSON MS
700 PM CST SUN FEB 07 2016

NOTE: "FAIR: INDICATES FEW OR NO CLOUDS BELOW 12,000 FEET WITH NO
SIGNIFICANT WEATHER AND/OR OBSTRUCTIONS TO VISIBILITY.

MSZ001>002-007>008-010>013-018>021-025>028-034>036-080200-
NORTHWEST MISSISSIPPI

CITY           SKY/WX    TMP DP  RH WIND       PRES   REMARKS
CLEVELAND      FAIR      48  41  78 SW7       30.05R
GREENWOOD      CLEAR     44  34  67 S7        30.06F
GREENVILLE     CLEAR     43  34  70 S9        30.05F
OXFORD         FAIR      48  30  49 SW6       30.04S
TUNICA         CLEAR     45  34  65 SW7       30.03S
$$

MSZ003>006-009-014>017-022>024-029>033-037>039-080200-
NORTHEAST MISSISSIPPI

CITY           SKY/WX    TMP DP  RH WIND       PRES   REMARKS
COLUMBUS AFB   CLEAR     42  29  60 W3        30.04S
CORINTH        FAIR      50  27  40 W5        30.00R
GOLDN TRIANGLE CLEAR     46  27  46 CALM      30.05R
TUPELO         CLEAR     51  25  36 S6        30.02F
$$

MSZ040-058-080200-
CENTRAL MISSISSIPPI

CITY           SKY/WX    TMP DP  RH WIND       PRES   REMARKS
JACKSON INTL   CLEAR     61  26  26 SW6       30.09F
JACKSON HAWKNS CLEAR     49  27  42 SW7       30.10S
MERIDIAN KEY   CLEAR     44  30  57 S3        30.09S
MERIDIAN NAS   CLEAR     47  23  38 SW3       30.08S
VICKSBURG      CLEAR     53  30  41 SW5       30.10F
$$

MSZ059>079-080200-
SOUTH MISSISSIPPI

CITY           SKY/WX    TMP DP  RH WIND       PRES   REMARKS
BROOKHAVEN     FAIR      52  30  43 SW6       30.12F
HATTIESBURG    CLEAR     46  30  53 CALM      30.12S
MCCOMB         CLEAR     51  28  41 W5        30.13R
NATCHEZ        CLEAR     52  27  37 S3        30.12F
PINE BELT      CLEAR     41  28  60 CALM      30.12S
$$

MSZ080>082-080200-
COASTAL MISSISSIPPI

CITY           SKY/WX    TMP DP  RH WIND       PRES   REMARKS
BAY ST LOUIS   CLEAR     43  28  56 CALM      30.16R
BILOXI         CLEAR     51  40  64 SW8       30.13F
PASCAGOULA     CLEAR     47  35  63 CALM      30.14S
GULFPORT       CLEAR     51  32  48 SW5       30.14S
$$




USA.gov is the U.S. government's official web portal to all federal, state and local government web resources and services.